Location: Newark
(43.0000°N, 1.6781°W)
Time: 05:59:39
(UTC+00:00)

XW-2C - Pass Details

Date: 07 December 2022
Orbit: 491 x 506 km, 97.5° (Epoch: 28 January)

Event Time Altitude Azimuth Distance (km) Brightness Sun altitude
Rises 17:23:56 0° 167° (SSE) 2,590 ? -9.3°
Reaches altitude 10° 17:26:01 10° 167° (SSE) 1,707 ? -9.7°
Maximum altitude 17:29:42 88° 258° (WSW) 507 ? -10.3°
Drops below altitude 10° 17:33:23 10° 347° (NNW) 1,708 ? -10.9°
Sets 17:35:27 0° 348° (NNW) 2,593 ? -11.3°
